When you browse on this site, cookies collect data to enhance your experience and personalize the content and advertising you see.
Visit our Privacy Policy to learn more. By continuing to use the site, you agree to this use of cookies and data.
  • In Romania
  • List of Countries
  • For 7 days
  • Water Temperature
  • Weather Map
  • Weather Widgets
  • user-avatar
    Login

    Hourly Weather Canberra

    Today, 20 September, Friday

    Time Temperature Precipitation Wind Pressure Humidity
    00:00 +11°C° 0 mm 1 mps 715 mmHg 96%
    01:00 +11°C° 0 mm 1 mps 714 mmHg 97%
    02:00 +11°C° 0 mm 1 mps 714 mmHg 97%
    03:00 +11°C° 0 mm 1 mps 714 mmHg 97%
    04:00 +11°C° 0 mm 1 mps 714 mmHg 96%
    05:00 +11°C° 0 mm 1 mps 714 mmHg 96%
    06:00 +12°C° 0 mm 1 mps 715 mmHg 96%
    07:00 +12°C° 0 mm 1 mps 715 mmHg 95%
    08:00 +14°C° 0 mm 1 mps 715 mmHg 88%
    09:00 +15°C° 0 mm 2 mps 715 mmHg 82%
    10:00 +17°C° 0 mm 2 mps 715 mmHg 75%
    11:00 +18°C° 0.1 mm 2 mps 714 mmHg 69%
    12:00 +20°C° 0.1 mm 3 mps 714 mmHg 64%
    13:00 +21°C° 0.1 mm 3 mps 713 mmHg 59%
    14:00 +21°C° 0.2 mm 3 mps 713 mmHg 61%
    15:00 +21°C° 0.2 mm 3 mps 713 mmHg 63%
    16:00 +20°C° 0.2 mm 3 mps 712 mmHg 66%
    17:00 +18°C° 0.1 mm 3 mps 712 mmHg 75%
    18:00 +16°C° 0.1 mm 3 mps 712 mmHg 84%
    19:00 +13°C° 0.1 mm 3 mps 712 mmHg 93%
    20:00 +13°C° 0.1 mm 3 mps 712 mmHg 94%
    21:00 +13°C° 0.1 mm 3 mps 712 mmHg 95%
    22:00 +13°C° 0.1 mm 2 mps 712 mmHg 97%
    23:00 +13°C° 0 mm 2 mps 712 mmHg 97%

    Tomorrow, 21 September, Saturday

    Time Temperature Precipitation Wind Pressure Humidity
    00:00 +13°C° 0 mm 2 mps 711 mmHg 97%
    01:00 +13°C° 0 mm 2 mps 710 mmHg 97%
    02:00 +12°C° 0 mm 1 mps 710 mmHg 97%
    03:00 +12°C° 0 mm 1 mps 710 mmHg 97%
    04:00 +12°C° 0 mm 1 mps 710 mmHg 97%
    05:00 +13°C° 0 mm 1 mps 710 mmHg 96%
    06:00 +13°C° 0 mm 1 mps 710 mmHg 94%
    07:00 +13°C° 0 mm 1 mps 710 mmHg 93%
    08:00 +14°C° 0.3 mm 3 mps 710 mmHg 87%
    09:00 +16°C° 0.3 mm 6 mps 710 mmHg 81%
    10:00 +18°C° 0.3 mm 8 mps 711 mmHg 75%
    11:00 +16°C° 2 mm 8 mps 710 mmHg 81%
    12:00 +15°C° 2 mm 7 mps 710 mmHg 88%
    13:00 +14°C° 2 mm 7 mps 709 mmHg 94%
    14:00 +14°C° 1.2 mm 7 mps 709 mmHg 94%
    15:00 +14°C° 1.2 mm 7 mps 709 mmHg 93%
    16:00 +14°C° 1.2 mm 6 mps 708 mmHg 93%
    17:00 +13°C° 0.9 mm 6 mps 709 mmHg 94%
    18:00 +13°C° 0.9 mm 5 mps 709 mmHg 95%
    19:00 +12°C° 0.9 mm 4 mps 709 mmHg 96%
    20:00 +11°C° 0.3 mm 4 mps 710 mmHg 96%
    21:00 +11°C° 0.3 mm 3 mps 710 mmHg 96%
    22:00 +10°C° 0.3 mm 3 mps 710 mmHg 96%
    23:00 +9°C° 0.4 mm 2 mps 710 mmHg 95%

    Day after tomorrow, 22 September, Sunday

    Time Temperature Precipitation Wind Pressure Humidity
    00:00 +9°C° 0.4 mm 2 mps 710 mmHg 94%
    01:00 +9°C° 0.4 mm 2 mps 710 mmHg 94%
    02:00 +8°C° 0 mm 2 mps 711 mmHg 94%
    03:00 +7°C° 0 mm 2 mps 711 mmHg 95%
    04:00 +5°C° 0 mm 3 mps 711 mmHg 95%
    05:00 +7°C° 0 mm 2 mps 712 mmHg 94%
    06:00 +7°C° 0 mm 2 mps 712 mmHg 93%
    07:00 +7°C° 0 mm 2 mps 712 mmHg 92%
    08:00 +9°C° 0 mm 3 mps 713 mmHg 81%
    09:00 +11°C° 0 mm 4 mps 713 mmHg 70%
    10:00 +13°C° 0 mm 5 mps 713 mmHg 59%
    11:00 +13°C° 0 mm 5 mps 713 mmHg 56%
    12:00 +14°C° 0 mm 5 mps 712 mmHg 54%
    13:00 +14°C° 0 mm 5 mps 712 mmHg 51%
    14:00 +14°C° 0 mm 5 mps 712 mmHg 52%
    15:00 +13°C° 0 mm 5 mps 711 mmHg 53%
    16:00 +13°C° 0 mm 5 mps 711 mmHg 55%
    17:00 +11°C° 0 mm 4 mps 712 mmHg 59%
    18:00 +9°C° 0 mm 3 mps 712 mmHg 64%
    19:00 +7°C° 0 mm 2 mps 712 mmHg 69%
    20:00 +7°C° 0 mm 2 mps 713 mmHg 72%
    21:00 +7°C° 0 mm 1 mps 713 mmHg 75%
    22:00 +6°C° 0 mm 1 mps 713 mmHg 78%
    23:00 +5°C° 0 mm 1 mps 713 mmHg 80%

    23 September, Monday

    Time Temperature Precipitation Wind Pressure Humidity
    00:00 +5°C° 0 mm 1 mps 712 mmHg 82%
    01:00 +4°C° 0 mm 1 mps 712 mmHg 84%
    02:00 +4°C° 0 mm 1 mps 712 mmHg 85%
    03:00 +3°C° 0 mm 1 mps 712 mmHg 87%
    04:00 +3°C° 0 mm 1 mps 712 mmHg 88%
    05:00 +4°C° 0 mm 1 mps 712 mmHg 86%
    06:00 +3°C° 0 mm 2 mps 712 mmHg 83%
    07:00 +4°C° 0 mm 2 mps 713 mmHg 81%
    08:00 +5°C° 0 mm 3 mps 713 mmHg 73%
    09:00 +7°C° 0 mm 4 mps 713 mmHg 65%
    10:00 +9°C° 0 mm 5 mps 714 mmHg 58%
    11:00 +10°C° 0.3 mm 5 mps 713 mmHg 53%
    12:00 +12°C° 0.3 mm 5 mps 713 mmHg 48%
    13:00 +13°C° 0.3 mm 5 mps 713 mmHg 43%
    14:00 +12°C° 0 mm 5 mps 713 mmHg 46%
    15:00 +12°C° 0 mm 5 mps 713 mmHg 49%
    16:00 +12°C° 0 mm 5 mps 713 mmHg 52%
    17:00 +10°C° 0 mm 4 mps 714 mmHg 61%
    18:00 +8°C° 0 mm 3 mps 714 mmHg 69%
    19:00 +5°C° 0 mm 2 mps 714 mmHg 78%
    20:00 +5°C° 0 mm 1 mps 715 mmHg 81%
    21:00 +5°C° 0 mm 1 mps 715 mmHg 84%
    22:00 +3°C° 0 mm 0 mps 715 mmHg 87%
    23:00 +2°C° 0 mm 0 mps 715 mmHg 88%

    24 September, Tuesday

    Time Temperature Precipitation Wind Pressure Humidity
    00:00 +2°C° 0 mm 0 mps 715 mmHg 89%
    01:00 +2°C° 0 mm 0 mps 715 mmHg 89%
    02:00 +1°C° 0 mm 0 mps 715 mmHg 89%
    03:00 +1°C° 0 mm 0 mps 715 mmHg 90%
    04:00 0°C° 0 mm 0 mps 715 mmHg 90%
    05:00 +1°C° 0 mm 0 mps 715 mmHg 88%
    06:00 +2°C° 0 mm 0 mps 715 mmHg 86%
    07:00 +3°C° 0 mm 0 mps 716 mmHg 83%
    08:00 +7°C° 0 mm 1 mps 716 mmHg 73%
    09:00 +10°C° 0 mm 1 mps 716 mmHg 62%
    10:00 +12°C° 0 mm 2 mps 716 mmHg 52%
    11:00 +14°C° 0 mm 2 mps 716 mmHg 49%
    12:00 +14°C° 0 mm 3 mps 715 mmHg 45%
    13:00 +15°C° 0 mm 4 mps 715 mmHg 42%
    14:00 +15°C° 0 mm 4 mps 714 mmHg 45%
    15:00 +14°C° 0 mm 4 mps 714 mmHg 48%
    16:00 +14°C° 0 mm 4 mps 713 mmHg 51%
    17:00 +12°C° 0 mm 4 mps 714 mmHg 61%
    18:00 +9°C° 0 mm 3 mps 714 mmHg 72%
    19:00 +7°C° 0 mm 2 mps 714 mmHg 83%
    20:00 +6°C° 0 mm 2 mps 715 mmHg 86%
    21:00 +6°C° 0 mm 1 mps 715 mmHg 89%
    22:00 +5°C° 0 mm 1 mps 715 mmHg 93%
    23:00 +5°C° 0 mm 1 mps 715 mmHg 93%

    25 September, Wednesday

    Time Temperature Precipitation Wind Pressure Humidity
    00:00 +3°C° 0 mm 0 mps 715 mmHg 93%
    01:00 +3°C° 0 mm 0 mps 714 mmHg 93%
    02:00 +3°C° 0 mm 0 mps 714 mmHg 93%
    03:00 +2°C° 0 mm 0 mps 714 mmHg 93%
    04:00 +2°C° 0 mm 0 mps 714 mmHg 93%
    05:00 +3°C° 0 mm 0 mps 714 mmHg 91%
    06:00 +4°C° 0 mm 0 mps 715 mmHg 88%
    07:00 +5°C° 0 mm 0 mps 715 mmHg 85%
    08:00 +7°C° 0 mm 0 mps 715 mmHg 75%
    09:00 +11°C° 0 mm 1 mps 715 mmHg 65%
    10:00 +13°C° 0 mm 1 mps 715 mmHg 55%
    11:00 +14°C° 0 mm 1 mps 715 mmHg 52%
    12:00 +15°C° 0 mm 2 mps 714 mmHg 48%
    13:00 +16°C° 0 mm 2 mps 714 mmHg 45%
    14:00 +14°C° 0 mm 3 mps 714 mmHg 48%
    15:00 +14°C° 0 mm 3 mps 713 mmHg 52%
    16:00 +14°C° 0 mm 3 mps 713 mmHg 56%
    17:00 +12°C° 0 mm 2 mps 713 mmHg 66%
    18:00 +9°C° 0 mm 2 mps 714 mmHg 77%
    19:00 +8°C° 0 mm 1 mps 714 mmHg 87%
    20:00 +7°C° 0 mm 1 mps 714 mmHg 89%
    21:00 +7°C° 0 mm 1 mps 714 mmHg 91%
    22:00 +7°C° 0 mm 1 mps 715 mmHg 93%
    23:00 +6°C° 0 mm 1 mps 715 mmHg 94%
    Show more